,,,PA_Meas_PMT16A,,PR_Meas_QMR101_102,,RH_Meas_QMH101,,SR_Meas_QMS101,,TA_Meas_QMH101,,GenWind,,GenWind,
date,time,status,PA,status,PR,status,RH,status,SR,status,TA,status,DirAvg,status,SpdAvg,
2008-09-15, 00:00:04,VALID,1006.39,VALID,0,VALID,89.9979,VALID,0,VALID,23.8009,VALID,304,VALID,0.294531,
2008-09-15, 00:01:04,VALID,1006.39,VALID,0,VALID,89.8606,VALID,0,VALID,23.8416,VALID,298,VALID,0.871875,
2008-09-15, 00:02:04,VALID,1006.4,VALID,0,VALID,89.7843,VALID,0,VALID,23.8203,VALID,282,VALID,0.564844,
2008-09-15, 00:03:04,VALID,1006.42,VALID,0,VALID,89.7461,VALID,0,VALID,23.8203,VALID,279,VALID,0.548047,
2008-09-15, 00:04:04,VALID,1006.42,VALID,0,VALID,89.7309,VALID,0,VALID,23.8009,VALID,276,VALID,0.172656,
2008-09-15, 00:05:04,VALID,1006.41,VALID,0,VALID,89.7004,VALID,0,VALID,23.8221,VALID,276,VALID,0.1125,
2008-09-15, 00:06:04,VALID,1006.4,VALID,0,VALID,89.769,VALID,0,VALID,23.8027,VALID,280,VALID,0.26875,
2008-09-15, 00:07:04,VALID,1006.43,VALID,0,VALID,89.769,VALID,0,VALID,23.7814,VALID,283,VALID,0.246484,
2008-09-15, 00:08:04,VALID,1006.38,VALID,0,VALID,89.8301,VALID,0,VALID,23.7814,VALID,284,VALID,0.0257812,
2008-09-15, 00:09:04,VALID,1006.39,VALID,0,VALID,89.8835,VALID,0,VALID,23.7832,VALID,291,VALID,0.289453,
2008-09-15, 00:10:04,VALID,1006.38,VALID,0,VALID,89.8911,VALID,0,VALID,23.7637,VALID,323,VALID,0.226172,
2008-09-15, 00:11:04,VALID,1006.35,VALID,0,VALID,89.8911,VALID,0,VALID,23.7425,VALID,325,VALID,0.31875,
2008-09-15, 00:12:04,VALID,1006.34,VALID,0,VALID,89.9979,VALID,0,VALID,23.7637,VALID,325,VALID,0.0195313,
2008-09-15, 00:13:04,VALID,1006.32,VALID,0,VALID,90.0513,VALID,0,VALID,23.7035,VALID,339,VALID,0.744922,
2008-09-15, 00:14:04,VALID,1006.31,VALID,0,VALID,89.9674,VALID,0,VALID,23.7248,VALID,299,VALID,0.225,
2008-09-15, 00:15:04,VALID,1006.33,VALID,0,VALID,89.9521,VALID,0,VALID,23.7035,VALID,299,VALID,0.0105469,
2008-09-15, 00:16:04,VALID,1006.33,VALID,0,VALID,89.9521,VALID,0,VALID,23.7035,VALID,299,VALID,0.00429688,
2008-09-15, 00:17:04,VALID,1006.32,VALID,0,VALID,90.036,VALID,0,VALID,23.6841,VALID,299,VALID,0.121484,
2008-09-15, 00:18:04,VALID,1006.35,VALID,0,VALID,90.0513,VALID,0,VALID,23.6646,VALID,306,VALID,0.0515625,
2008-09-15, 00:19:04,VALID,1006.34,VALID,0,VALID,90.0894,VALID,0,VALID,23.6452,VALID,304,VALID,0.429297,
2008-09-15, 00:20:04,VALID,1006.3,VALID,0,VALID,90.0742,VALID,0,VALID,23.6646,VALID,304,VALID,0.415625,
2008-09-15, 00:21:04,VALID,1006.34,VALID,0,VALID,89.9903,VALID,0,VALID,23.6646,VALID,304,VALID,0.104687,
2008-09-15, 00:22:04,VALID,1006.34,VALID,0,VALID,89.9445,VALID,0,VALID,23.6841,VALID,304,VALID,0,
2008-09-15, 00:23:04,VALID,1006.32,VALID,0,VALID,89.8224,VALID,0,VALID,23.6841,VALID,305,VALID,0.00234375,
2008-09-15, 00:24:04,VALID,1006.31,VALID,0,VALID,89.7843,VALID,0,VALID,23.7248,VALID,303,VALID,0.113672,
2008-09-15, 00:25:04,VALID,1006.28,VALID,0,VALID,89.7156,VALID,0,VALID,23.7035,VALID,303,VALID,0.273438,
2008-09-15, 00:26:04,VALID,1006.28,VALID,0,VALID,89.6699,VALID,0,VALID,23.7248,VALID,303,VALID,0.405469,
2008-09-15, 00:27:04,VALID,1006.26,VALID,0,VALID,89.6241,VALID,0,VALID,23.7035,VALID,301,VALID,0.341406,
2008-09-15, 00:28:04,VALID,1006.25,VALID,0,VALID,89.4639,VALID,0,VALID,23.7248,VALID,301,VALID,0.3875,
2008-09-15, 00:29:04,VALID,1006.24,VALID,0,VALID,89.4257,VALID,0,VALID,23.7443,VALID,301,VALID,0,
2008-09-15, 00:30:04,VALID,1006.23,VALID,0,VALID,89.3266,VALID,0,VALID,23.723,VALID,301,VALID,0,
2008-09-15, 00:31:04,VALID,1006.24,VALID,0,VALID,89.2198,VALID,0,VALID,23.723,VALID,301,VALID,0.226172,
2008-09-15, 00:32:04,VALID,1006.24,VALID,0,VALID,89.174,VALID,0,VALID,23.723,VALID,301,VALID,0,
2008-09-15, 00:33:04,VALID,1006.23,VALID,0,VALID,89.2732,VALID,0,VALID,23.723,VALID,301,VALID,0.372266,
2008-09-15, 00:34:04,VALID,1006.24,VALID,0,VALID,89.3037,VALID,0,VALID,23.7461,VALID,335,VALID,0.529297,
2008-09-15, 00:35:04,VALID,1006.23,VALID,0,VALID,89.3266,VALID,0,VALID,23.7248,VALID,340,VALID,0.151953,
2008-09-15, 00:36:04,VALID,1006.26,VALID,0,VALID,89.3113,VALID,0,VALID,23.7248,VALID,340,VALID,0.424219,
2008-09-15, 00:37:04,VALID,1006.24,VALID,0,VALID,89.3723,VALID,0,VALID,23.6859,VALID,341,VALID,0.325,
2008-09-15, 00:38:04,VALID,1006.24,VALID,0,VALID,89.4486,VALID,0,VALID,23.6664,VALID,341,VALID,0.0308594,
2008-09-15, 00:39:04,VALID,1006.2,VALID,0,VALID,89.4639,VALID,0,VALID,23.6664,VALID,341,VALID,0,
2008-09-15, 00:40:04,VALID,1006.18,VALID,0,VALID,89.5707,VALID,0,VALID,23.6257,VALID,341,VALID,0,
2008-09-15, 00:41:04,VALID,1006.15,VALID,0,VALID,89.6088,VALID,0,VALID,23.5868,VALID,341,VALID,0,
2008-09-15, 00:42:04,VALID,1006.17,VALID,0,VALID,89.708,VALID,0,VALID,23.5885,VALID,341,VALID,0,
2008-09-15, 00:43:04,VALID,1006.15,VALID,0,VALID,89.7309,VALID,0,VALID,23.5868,VALID,341,VALID,0,
2008-09-15, 00:44:04,VALID,1006.14,VALID,0,VALID,89.8148,VALID,0,VALID,23.5673,VALID,341,VALID,0.0699219,
2008-09-15, 00:45:04,VALID,1006.15,VALID,0,VALID,89.8835,VALID,0,VALID,23.5673,VALID,341,VALID,0.253906,
2008-09-15, 00:46:04,VALID,1006.12,VALID,0,VALID,89.9674,VALID,0,VALID,23.5478,VALID,341,VALID,0.137891,
2008-09-15, 00:47:04,VALID,1006.08,VALID,0,VALID,90.036,VALID,0,VALID,23.5691,VALID,337,VALID,0.126172,
2008-09-15, 00:48:04,VALID,1006.04,VALID,0,VALID,90.0132,VALID,0,VALID,23.5266,VALID,337,VALID,0.142188,
2008-09-15, 00:49:04,VALID,1006.04,VALID,0,VALID,90.0055,VALID,0,VALID,23.5284,VALID,337,VALID,0.0539063,
2008-09-15, 00:50:04,VALID,1006.01,VALID,0,VALID,90.0513,VALID,0,VALID,23.5496,VALID,338,VALID,0.046875,
2008-09-15, 00:51:04,VALID,1006,VALID,0,VALID,90.0894,VALID,0,VALID,23.5478,VALID,346,VALID,0.301562,
2008-09-15, 00:52:04,VALID,1005.98,VALID,0,VALID,90.1047,VALID,0,VALID,23.5478,VALID,346,VALID,0.230078,
2008-09-15, 00:53:04,VALID,1005.95,VALID,0,VALID,90.0894,VALID,0,VALID,23.5691,VALID,346,VALID,0.0546875,
2008-09-15, 00:54:04,VALID,1005.95,VALID,0,VALID,90.036,VALID,0,VALID,23.5496,VALID,344,VALID,0.555469,
2008-09-15, 00:55:04,VALID,1005.93,VALID,0,VALID,90.1352,VALID,0,VALID,23.4894,VALID,349,VALID,0.751562,
2008-09-15, 00:56:04,VALID,1005.92,VALID,0,VALID,90.4022,VALID,0,VALID,23.47,VALID,350,VALID,0.525,
2008-09-15, 00:57:04,VALID,1005.89,VALID,0,VALID,90.4862,VALID,0,VALID,23.4912,VALID,347,VALID,0.470313,
2008-09-15, 00:58:04,VALID,1005.92,VALID,0,VALID,90.6692,VALID,0,VALID,23.4505,VALID,345,VALID,0.145313,
2008-09-15, 00:59:04,VALID,1005.95,VALID,0,VALID,90.654,VALID,0,VALID,23.47,VALID,345,VALID,0.164844,
2008-09-15, 01:00:04,VALID,1005.95,VALID,0,VALID,90.7226,VALID,0,VALID,23.4718,VALID,345,VALID,0.157813,
2008-09-15, 01:01:04,VALID,1005.94,VALID,0,VALID,90.7303,VALID,0,VALID,23.4718,VALID,345,VALID,0,
2008-09-15, 01:02:04,VALID,1005.96,VALID,0,VALID,90.7455,VALID,0,VALID,23.4718,VALID,345,VALID,0,
2008-09-15, 01:03:04,VALID,1005.96,VALID,0,VALID,90.8371,VALID,0,VALID,23.4523,VALID,345,VALID,0.00390625,
2008-09-15, 01:04:04,VALID,1005.93,VALID,0,VALID,90.8752,VALID,0,VALID,23.4134,VALID,345,VALID,0.221484,
2008-09-15, 01:05:04,VALID,1005.92,VALID,0,VALID,90.8905,VALID,0,VALID,23.355,VALID,346,VALID,0.410547,
2008-09-15, 01:06:04,VALID,1005.93,VALID,0,VALID,91.0431,VALID,0,VALID,23.2771,VALID,351,VALID,0.278906,
2008-09-15, 01:07:04,VALID,1005.89,VALID,0,VALID,91.2719,VALID,0,VALID,23.1993,VALID,357,VALID,0.521484,
2008-09-15, 01:08:04,VALID,1005.89,VALID,0,VALID,91.5923,VALID,0,VALID,23.1409,VALID,357,VALID,0.598828,
2008-09-15, 01:09:04,VALID,1005.87,VALID,0,VALID,91.8365,VALID,0,VALID,23.0825,VALID,358,VALID,0.576563,
2008-09-15, 01:10:04,VALID,1005.83,VALID,0,VALID,92.2027,VALID,0,VALID,23.0241,VALID,358,VALID,0.610937,
2008-09-15, 01:11:04,VALID,1005.83,VALID,0,VALID,92.4697,VALID,0,VALID,23.0064,VALID,358,VALID,0.451172,
2008-09-15, 01:12:04,VALID,1005.8,VALID,0,VALID,92.6756,VALID,0,VALID,22.9657,VALID,358,VALID,0.118359,
2008-09-15, 01:13:04,VALID,1005.81,VALID,0,VALID,93.0342,VALID,0,VALID,22.9463,VALID,358,VALID,0.138672,
2008-09-15, 01:14:04,VALID,1005.79,VALID,0,VALID,93.4233,VALID,0,VALID,22.9834,VALID,228,VALID,0.486328,
2008-09-15, 01:15:04,VALID,1005.78,VALID,0,VALID,93.5987,VALID,0,VALID,23.0436,VALID,220,VALID,0.778906,
2008-09-15, 01:16:04,VALID,1005.81,VALID,0,VALID,93.8581,VALID,0,VALID,23.0224,VALID,229,VALID,0.529688,
2008-09-15, 01:17:04,VALID,1005.78,VALID,0,VALID,94.0107,VALID,0,VALID,23.1409,VALID,323,VALID,0.4875,
2008-09-15, 01:18:04,VALID,1005.73,VALID,0,VALID,94.4074,VALID,0,VALID,23.2771,VALID,227,VALID,0.905859,
2008-09-15, 01:19:04,VALID,1005.72,VALID,0,VALID,94.2548,VALID,0,VALID,23.3939,VALID,301,VALID,0.599609,
2008-09-15, 01:20:04,VALID,1005.68,VALID,0,VALID,93.9497,VALID,0,VALID,23.5302,VALID,203,VALID,1.04414,
2008-09-15, 01:21:04,VALID,1005.68,VALID,0,VALID,93.5377,VALID,0,VALID,23.6452,VALID,240,VALID,0.480859,
2008-09-15, 01:22:04,VALID,1005.66,VALID,0,VALID,93.1639,VALID,0,VALID,23.7443,VALID,248,VALID,0.667578,
2008-09-15, 01:23:04,VALID,1005.64,VALID,0,VALID,92.8969,VALID,0,VALID,23.8416,VALID,219,VALID,0.986719,
2008-09-15, 01:24:04,VALID,1005.64,VALID,0,VALID,92.5993,VALID,0,VALID,23.9584,VALID,190,VALID,0.748828,
2008-09-15, 01:25:04,VALID,1005.64,VALID,0,VALID,92.4163,VALID,0,VALID,24.0557,VALID,167,VALID,0.550781,
2008-09-15, 01:26:04,VALID,1005.65,VALID,0,VALID,92.1721,VALID,0,VALID,24.1142,VALID,173,VALID,0.352344,
2008-09-15, 01:27:04,VALID,1005.64,VALID,0,VALID,91.9814,VALID,0,VALID,24.1531,VALID,207,VALID,0.358594,
2008-09-15, 01:28:04,VALID,1005.65,VALID,0.5,VALID,92.0577,VALID,0,VALID,24.192,VALID,222,VALID,0.791797,
2008-09-15, 01:29:04,VALID,1005.61,VALID,0.5,VALID,92.3857,VALID,0,VALID,24.1902,VALID,215,VALID,1.53437,
2008-09-15, 01:30:04,VALID,1005.58,VALID,1,VALID,92.7977,VALID,0,VALID,24.1336,VALID,202,VALID,0.739062,
2008-09-15, 01:31:04,VALID,1005.49,VALID,0.5,VALID,93.1486,VALID,0,VALID,24.0752,VALID,114,VALID,0.730469,
2008-09-15, 01:32:04,VALID,1005.4,VALID,0,VALID,93.5224,VALID,0,VALID,23.9955,VALID,190,VALID,0.683203,
2008-09-15, 01:33:04,VALID,1005.39,VALID,0.5,VALID,93.7971,VALID,0,VALID,23.9779,VALID,30,VALID,0.44375,
2008-09-15, 01:34:04,VALID,1005.34,VALID,0,VALID,93.9802,VALID,0,VALID,23.9584,VALID,16,VALID,0.4375,
2008-09-15, 01:35:04,VALID,1005.31,VALID,0.5,VALID,94.1633,VALID,0,VALID,23.9371,VALID,9,VALID,0.411719,
2008-09-15, 01:36:04,VALID,1005.27,VALID,0,VALID,94.3235,VALID,0,VALID,23.9389,VALID,349,VALID,0.6375,
2008-09-15, 01:37:04,VALID,1005.25,VALID,0.5,VALID,94.4074,VALID,0,VALID,23.9195,VALID,15,VALID,0.852344,
2008-09-15, 01:38:04,VALID,1005.22,VALID,0,VALID,94.4684,VALID,0,VALID,23.9,VALID,16,VALID,0.542578,
2008-09-15, 01:39:04,VALID,1005.2,VALID,0,VALID,94.5752,VALID,0,VALID,23.8593,VALID,16,VALID,0.617969,
2008-09-15, 01:40:04,VALID,1005.16,VALID,0,VALID,94.6363,VALID,0,VALID,23.8416,VALID,17,VALID,0.371875,
2008-09-15, 01:41:04,VALID,1005.15,VALID,0.5,VALID,94.6973,VALID,0,VALID,23.8221,VALID,13,VALID,0.0746094,
2008-09-15, 01:42:04,VALID,1005.09,VALID,0,VALID,94.8117,VALID,0,VALID,23.8221,VALID,13,VALID,0.654297,
2008-09-15, 01:43:04,VALID,1005.07,VALID,0,VALID,94.8728,VALID,0,VALID,23.8221,VALID,11,VALID,0.707031,
2008-09-15, 01:44:04,VALID,1005.01,VALID,0,VALID,94.9338,VALID,0,VALID,23.7814,VALID,4,VALID,0.812109,
2008-09-15, 01:45:04,VALID,1004.97,VALID,0.5,VALID,95.0024,VALID,0,VALID,23.7814,VALID,358,VALID,1.02578,
2008-09-15, 01:46:04,VALID,1004.92,VALID,0,VALID,95.0177,VALID,0,VALID,23.7619,VALID,357,VALID,0.733984,
2008-09-15, 01:47:04,VALID,1004.84,VALID,0,VALID,95.094,VALID,0,VALID,23.7832,VALID,2,VALID,1.1,
2008-09-15, 01:48:04,VALID,1004.78,VALID,0,VALID,95.155,VALID,0,VALID,23.7832,VALID,6,VALID,0.834766,
2008-09-15, 01:49:04,VALID,1004.72,VALID,0,VALID,95.2618,VALID,0,VALID,23.7619,VALID,356,VALID,0.810547,
2008-09-15, 01:50:04,VALID,1004.69,VALID,0,VALID,95.3229,VALID,0,VALID,23.8221,VALID,355,VALID,1.0582,
2008-09-15, 01:51:04,VALID,1004.71,VALID,0,VALID,95.3534,VALID,0,VALID,23.8434,VALID,6,VALID,0.484766,
2008-09-15, 01:52:04,VALID,1004.71,VALID,0,VALID,95.3839,VALID,0,VALID,23.8416,VALID,335,VALID,0.426172,
2008-09-15, 01:53:04,VALID,1004.71,VALID,0,VALID,95.4144,VALID,0,VALID,23.8824,VALID,297,VALID,0.565625,
2008-09-15, 01:54:04,VALID,1004.69,VALID,0,VALID,95.422,VALID,0,VALID,23.9,VALID,298,VALID,0.287109,
2008-09-15, 01:55:04,VALID,1004.7,VALID,0,VALID,95.4373,VALID,0,VALID,23.9195,VALID,309,VALID,0.294922,
2008-09-15, 01:56:04,VALID,1004.69,VALID,0,VALID,95.4373,VALID,0,VALID,23.9177,VALID,334,VALID,0.988281,
2008-09-15, 01:57:04,VALID,1004.64,VALID,0,VALID,95.422,VALID,0,VALID,23.9389,VALID,354,VALID,0.990234,
2008-09-15, 01:58:04,VALID,1004.63,VALID,0,VALID,95.422,VALID,0,VALID,23.9389,VALID,359,VALID,0.949219,
2008-09-15, 01:59:04,VALID,1004.61,VALID,0,VALID,95.4068,VALID,0,VALID,23.9584,VALID,356,VALID,0.744141,
2008-09-15, 02:00:04,VALID,1004.58,VALID,0,VALID,95.3991,VALID,0,VALID,23.9177,VALID,354,VALID,0.532812,
2008-09-15, 02:01:04,VALID,1004.55,VALID,0,VALID,95.3457,VALID,0,VALID,23.9177,VALID,2,VALID,0.730469,
2008-09-15, 02:02:04,VALID,1004.54,VALID,0,VALID,95.3686,VALID,0,VALID,23.9177,VALID,348,VALID,1.12344,
2008-09-15, 02:03:04,VALID,1004.49,VALID,0,VALID,95.361,VALID,0,VALID,23.9195,VALID,347,VALID,0.708984,
2008-09-15, 02:04:04,VALID,1004.45,VALID,0,VALID,95.3381,VALID,0,VALID,23.8982,VALID,359,VALID,1.34297,
2008-09-15, 02:05:04,VALID,1004.38,VALID,0,VALID,95.3381,VALID,0,VALID,23.9,VALID,4,VALID,1.65273,
2008-09-15, 02:06:04,VALID,1004.34,VALID,0,VALID,95.3076,VALID,0,VALID,23.8787,VALID,6,VALID,0.712891,
2008-09-15, 02:07:04,VALID,1004.3,VALID,0,VALID,95.3,VALID,0,VALID,23.8593,VALID,5,VALID,1.04922,
2008-09-15, 02:08:04,VALID,1004.23,VALID,0,VALID,95.2923,VALID,0,VALID,23.8805,VALID,7,VALID,1.32539,
2008-09-15, 02:09:04,VALID,1004.23,VALID,0,VALID,95.2466,VALID,0,VALID,23.8805,VALID,350,VALID,1.49375,
2008-09-15, 02:10:04,VALID,1004.28,VALID,0,VALID,95.2008,VALID,0,VALID,23.8805,VALID,351,VALID,1.17461,
2008-09-15, 02:11:04,VALID,1004.27,VALID,0,VALID,95.155,VALID,0,VALID,23.9,VALID,289,VALID,0.583203,
2008-09-15, 02:12:04,VALID,1004.27,VALID,0,VALID,95.1245,VALID,0,VALID,23.9,VALID,357,VALID,0.405859,
2008-09-15, 02:13:04,VALID,1004.25,VALID,0,VALID,95.0177,VALID,0,VALID,23.8805,VALID,347,VALID,1.36523,
2008-09-15, 02:14:04,VALID,1004.3,VALID,0,VALID,95.0024,VALID,0,VALID,23.9,VALID,344,VALID,0.7875,
2008-09-15, 02:15:04,VALID,1004.26,VALID,0,VALID,94.9414,VALID,0,VALID,23.8787,VALID,344,VALID,1.30273,
2008-09-15, 02:16:04,VALID,1004.27,VALID,0,VALID,94.9033,VALID,0,VALID,23.9,VALID,353,VALID,0.739844,
2008-09-15, 02:17:04,VALID,1004.25,VALID,0,VALID,94.8575,VALID,0,VALID,23.9,VALID,354,VALID,1.03594,
2008-09-15, 02:18:04,VALID,1004.3,VALID,0,VALID,94.8194,VALID,0,VALID,23.9195,VALID,344,VALID,0.219922,
2008-09-15, 02:19:04,VALID,1004.26,VALID,0,VALID,94.7812,VALID,0,VALID,23.9,VALID,327,VALID,0.707422,
2008-09-15, 02:20:04,VALID,1004.25,VALID,0,VALID,94.7507,VALID,0,VALID,23.8787,VALID,342,VALID,0.558203,
2008-09-15, 02:21:04,VALID,1004.23,VALID,0,VALID,94.7431,VALID,0,VALID,23.9195,VALID,354,VALID,0.574219,
2008-09-15, 02:22:04,VALID,1004.24,VALID,0,VALID,94.7049,VALID,0,VALID,23.8982,VALID,332,VALID,0.624609,
2008-09-15, 02:23:04,VALID,1004.23,VALID,0,VALID,94.6668,VALID,0,VALID,23.8982,VALID,339,VALID,0.575781,
2008-09-15, 02:24:04,VALID,1004.25,VALID,0,VALID,94.6363,VALID,0,VALID,23.8982,VALID,13,VALID,0.195703,
2008-09-15, 02:25:04,VALID,1004.25,VALID,0,VALID,94.5981,VALID,0,VALID,23.8787,VALID,354,VALID,0.414844,
2008-09-15, 02:26:04,VALID,1004.27,VALID,0,VALID,94.5981,VALID,0,VALID,23.8593,VALID,346,VALID,0.184766,
2008-09-15, 02:27:04,VALID,1004.25,VALID,0,VALID,94.5981,VALID,0,VALID,23.8611,VALID,322,VALID,0.342969,
2008-09-15, 02:28:04,VALID,1004.23,VALID,0,VALID,94.5752,VALID,0,VALID,23.8398,VALID,351,VALID,0.958203,
2008-09-15, 02:29:04,VALID,1004.2,VALID,0,VALID,94.5752,VALID,0,VALID,23.8398,VALID,353,VALID,0.528906,
2008-09-15, 02:30:04,VALID,1004.22,VALID,0,VALID,94.5676,VALID,0,VALID,23.8221,VALID,348,VALID,0.78125,
2008-09-15, 02:31:04,VALID,1004.2,VALID,0,VALID,94.5066,VALID,0,VALID,23.8416,VALID,346,VALID,0.765234,
2008-09-15, 02:32:04,VALID,1004.17,VALID,0,VALID,94.4989,VALID,0,VALID,23.8416,VALID,338,VALID,0.421094,
2008-09-15, 02:33:04,VALID,1004.17,VALID,0,VALID,94.4761,VALID,0,VALID,23.8009,VALID,320,VALID,0.261719,
2008-09-15, 02:34:04,VALID,1004.16,VALID,0,VALID,94.4761,VALID,0,VALID,23.8027,VALID,291,VALID,0.56875,
2008-09-15, 02:35:04,VALID,1004.19,VALID,0,VALID,94.4913,VALID,0,VALID,23.7814,VALID,284,VALID,0,
2008-09-15, 02:36:04,VALID,1004.17,VALID,0,VALID,94.5142,VALID,0,VALID,23.7425,VALID,285,VALID,0.00507812,
2008-09-15, 02:37:04,VALID,1004.18,VALID,0,VALID,94.5218,VALID,0,VALID,23.7443,VALID,288,VALID,0.110937,
2008-09-15, 02:38:04,VALID,1004.15,VALID,0,VALID,94.5523,VALID,0,VALID,23.7248,VALID,353,VALID,0.584375,
2008-09-15, 02:39:04,VALID,1004.16,VALID,0,VALID,94.5447,VALID,0,VALID,23.7053,VALID,351,VALID,0.364844,
2008-09-15, 02:40:04,VALID,1004.16,VALID,0,VALID,94.5829,VALID,0,VALID,23.6859,VALID,351,VALID,0.0796875,
2008-09-15, 02:41:04,VALID,1004.14,VALID,0,VALID,94.621,VALID,0,VALID,23.6452,VALID,351,VALID,0.305859,
2008-09-15, 02:42:04,VALID,1004.14,VALID,0,VALID,94.6134,VALID,0,VALID,23.6452,VALID,353,VALID,0.383203,
2008-09-15, 02:43:04,VALID,1004.13,VALID,0,VALID,94.6591,VALID,0,VALID,23.6469,VALID,4,VALID,0.529688,
2008-09-15, 02:44:04,VALID,1004.11,VALID,0,VALID,94.7125,VALID,0,VALID,23.6257,VALID,3,VALID,0.320703,
2008-09-15, 02:45:04,VALID,1004.12,VALID,0,VALID,94.682,VALID,0,VALID,23.6062,VALID,3,VALID,0.407031,
2008-09-15, 02:46:04,VALID,1004.12,VALID,0,VALID,94.6973,VALID,0,VALID,23.5885,VALID,360,VALID,0.448438,
2008-09-15, 02:47:04,VALID,1004.12,VALID,0,VALID,94.7507,VALID,0,VALID,23.5885,VALID,347,VALID,0.609766,
2008-09-15, 02:48:04,VALID,1004.1,VALID,0,VALID,94.7507,VALID,0,VALID,23.546,VALID,355,VALID,0.746484,
2008-09-15, 02:49:04,VALID,1004.14,VALID,0,VALID,94.7965,VALID,0,VALID,23.5868,VALID,3,VALID,1.04336,
2008-09-15, 02:50:04,VALID,1004.13,VALID,0,VALID,94.766,VALID,0,VALID,23.6469,VALID,347,VALID,0.531641,
2008-09-15, 02:51:04,VALID,1004.16,VALID,0,VALID,94.6515,VALID,0,VALID,23.6859,VALID,347,VALID,0.180469,
2008-09-15, 02:52:04,VALID,1004.16,VALID,0,VALID,94.5523,VALID,0,VALID,23.6859,VALID,346,VALID,0.190625,
2008-09-15, 02:53:04,VALID,1004.14,VALID,0,VALID,94.5066,VALID,0,VALID,23.6664,VALID,346,VALID,0.159375,
2008-09-15, 02:54:04,VALID,1004.15,VALID,0,VALID,94.4761,VALID,0,VALID,23.6469,VALID,346,VALID,0.289453,
2008-09-15, 02:55:04,VALID,1004.14,VALID,0,VALID,94.4532,VALID,0,VALID,23.608,VALID,345,VALID,0.631641,
2008-09-15, 02:56:04,VALID,1004.12,VALID,0,VALID,94.4608,VALID,0,VALID,23.608,VALID,350,VALID,0.00195313,
2008-09-15, 02:57:04,VALID,1004.11,VALID,0,VALID,94.4913,VALID,0,VALID,23.5691,VALID,350,VALID,0.00273437,
2008-09-15, 02:58:04,VALID,1004.11,VALID,0,VALID,94.5295,VALID,0,VALID,23.5903,VALID,350,VALID,0.379297,
2008-09-15, 02:59:04,VALID,1004.08,VALID,0,VALID,94.5676,VALID,0,VALID,23.5496,VALID,356,VALID,0.640625,
2008-09-15, 03:00:04,VALID,1004.06,VALID,0,VALID,94.6286,VALID,0,VALID,23.5496,VALID,356,VALID,0.352734,
2008-09-15, 03:01:04,VALID,1004.06,VALID,0,VALID,94.6515,VALID,0,VALID,23.5302,VALID,339,VALID,0.869531,
2008-09-15, 03:02:04,VALID,1004.05,VALID,0,VALID,94.6668,VALID,0,VALID,23.5284,VALID,345,VALID,0.172266,
2008-09-15, 03:03:04,VALID,1004.03,VALID,0,VALID,94.6515,VALID,0,VALID,23.5302,VALID,320,VALID,0.258594,
2008-09-15, 03:04:04,VALID,1004.03,VALID,0,VALID,94.6286,VALID,0,VALID,23.5107,VALID,344,VALID,0.282031,
2008-09-15, 03:05:04,VALID,1004,VALID,0,VALID,94.6591,VALID,0,VALID,23.5107,VALID,339,VALID,0.366797,
2008-09-15, 03:06:04,VALID,1003.96,VALID,0,VALID,94.6439,VALID,0,VALID,23.47,VALID,6,VALID,0.667188,
2008-09-15, 03:07:04,VALID,1003.98,VALID,0,VALID,94.6973,VALID,0,VALID,23.4912,VALID,2,VALID,0.745313,
2008-09-15, 03:08:04,VALID,1003.97,VALID,0,VALID,94.7049,VALID,0,VALID,23.4718,VALID,1,VALID,0.932813,
2008-09-15, 03:09:04,VALID,1003.95,VALID,0,VALID,94.7049,VALID,0,VALID,23.4912,VALID,350,VALID,0.435937,
2008-09-15, 03:10:04,VALID,1003.95,VALID,0,VALID,94.682,VALID,0,VALID,23.4912,VALID,357,VALID,0.926562,
2008-09-15, 03:11:04,VALID,1003.92,VALID,0,VALID,94.6897,VALID,0,VALID,23.4718,VALID,360,VALID,0.976953,
2008-09-15, 03:12:04,VALID,1003.9,VALID,0,VALID,94.7125,VALID,0,VALID,23.4718,VALID,330,VALID,0.354688,
2008-09-15, 03:13:04,VALID,1003.9,VALID,0,VALID,94.7125,VALID,0,VALID,23.4505,VALID,354,VALID,0.765625,
2008-09-15, 03:14:04,VALID,1003.9,VALID,0,VALID,94.6973,VALID,0,VALID,23.4718,VALID,356,VALID,0.407813,
2008-09-15, 03:15:04,VALID,1003.89,VALID,0,VALID,94.6515,VALID,0,VALID,23.4311,VALID,350,VALID,0.132422,
2008-09-15, 03:16:04,VALID,1003.89,VALID,0,VALID,94.6897,VALID,0,VALID,23.4505,VALID,358,VALID,0.444531,
2008-09-15, 03:17:04,VALID,1003.88,VALID,0,VALID,94.682,VALID,0,VALID,23.4718,VALID,360,VALID,0.441797,
2008-09-15, 03:18:04,VALID,1003.86,VALID,0,VALID,94.6668,VALID,0,VALID,23.4505,VALID,351,VALID,0.694141,
2008-09-15, 03:19:04,VALID,1003.86,VALID,0,VALID,94.6439,VALID,0,VALID,23.4311,VALID,351,VALID,0.253906,
2008-09-15, 03:20:04,VALID,1003.87,VALID,0,VALID,94.6744,VALID,0,VALID,23.4523,VALID,353,VALID,0.342187,
2008-09-15, 03:21:04,VALID,1003.86,VALID,0,VALID,94.682,VALID,0,VALID,23.4311,VALID,347,VALID,0.634375,
2008-09-15, 03:22:04,VALID,1003.87,VALID,0,VALID,94.6744,VALID,0,VALID,23.4116,VALID,352,VALID,0.597656,
2008-09-15, 03:23:04,VALID,1003.84,VALID,0,VALID,94.6744,VALID,0,VALID,23.4328,VALID,344,VALID,0.627734,
2008-09-15, 03:24:04,VALID,1003.84,VALID,0,VALID,94.6057,VALID,0,VALID,23.4328,VALID,347,VALID,0.375781,
2008-09-15, 03:25:04,VALID,1003.84,VALID,0,VALID,94.6134,VALID,0,VALID,23.3921,VALID,357,VALID,0.482031,
2008-09-15, 03:26:04,VALID,1003.81,VALID,0,VALID,94.6439,VALID,0,VALID,23.3727,VALID,322,VALID,0.685938,
2008-09-15, 03:27:04,VALID,1003.78,VALID,0,VALID,94.6744,VALID,0,VALID,23.4134,VALID,319,VALID,0.353906,
2008-09-15, 03:28:04,VALID,1003.78,VALID,0,VALID,94.6973,VALID,0,VALID,23.4134,VALID,341,VALID,0.260938,
2008-09-15, 03:29:04,VALID,1003.75,VALID,0,VALID,94.7125,VALID,0,VALID,23.3921,VALID,334,VALID,0.418359,
2008-09-15, 03:30:04,VALID,1003.74,VALID,0,VALID,94.6897,VALID,0,VALID,23.3727,VALID,22,VALID,0.258594,
2008-09-15, 03:31:04,VALID,1003.74,VALID,0,VALID,94.7354,VALID,0,VALID,23.3744,VALID,353,VALID,0.385156,
2008-09-15, 03:32:04,VALID,1003.73,VALID,0,VALID,94.7049,VALID,0,VALID,23.3744,VALID,330,VALID,0.0992187,
2008-09-15, 03:33:04,VALID,1003.74,VALID,0,VALID,94.7354,VALID,0,VALID,23.3532,VALID,344,VALID,0.761328,
2008-09-15, 03:34:04,VALID,1003.71,VALID,0,VALID,94.7354,VALID,0,VALID,23.3727,VALID,347,VALID,0.517578,
2008-09-15, 03:35:04,VALID,1003.74,VALID,0,VALID,94.7431,VALID,0,VALID,23.3727,VALID,350,VALID,0.723437,
2008-09-15, 03:36:04,VALID,1003.75,VALID,0,VALID,94.7965,VALID,0,VALID,23.3939,VALID,350,VALID,0.498437,
2008-09-15, 03:37:04,VALID,1003.75,VALID,0,VALID,94.7583,VALID,0,VALID,23.3939,VALID,353,VALID,0.573438,
2008-09-15, 03:38:04,VALID,1003.81,VALID,0,VALID,94.7278,VALID,0,VALID,23.3939,VALID,12,VALID,0.222656,
2008-09-15, 03:39:04,VALID,1003.78,VALID,0,VALID,94.7125,VALID,0,VALID,23.3939,VALID,12,VALID,0.0359375,
2008-09-15, 03:40:04,VALID,1003.79,VALID,0,VALID,94.7202,VALID,0,VALID,23.3727,VALID,5,VALID,0.430859,
2008-09-15, 03:41:04,VALID,1003.79,VALID,0,VALID,94.7278,VALID,0,VALID,23.3744,VALID,1,VALID,0.0261719,
2008-09-15, 03:42:04,VALID,1003.81,VALID,0,VALID,94.7125,VALID,0,VALID,23.3143,VALID,1,VALID,0,
2008-09-15, 03:43:04,VALID,1003.81,VALID,0,VALID,94.7354,VALID,0,VALID,23.3355,VALID,1,VALID,0.114453,
2008-09-15, 03:44:04,VALID,1003.82,VALID,0,VALID,94.7812,VALID,0,VALID,23.3355,VALID,351,VALID,0.0386719,
2008-09-15, 03:45:04,VALID,1003.83,VALID,0,VALID,94.8041,VALID,0,VALID,23.316,VALID,351,VALID,0.00507812,